レナード彗星

C/2020 H4 ( Leonard )

English version
Home page
Updated on May 26, 2021

---------------------------------------------------------------------

・ プロフィール

発見日 2020年4月21日
発見光度 19.5等
発見者 Gregory J. Leonard (Mount Lemmon Survey)

・ 軌道要素

Epoch 2020 Aug. 19.0 TT = JDT 2459080.5
T 2020 Aug. 29.23729 TT                                 Rudenko
q   0.9385129            (2000.0)            P               Q
z  +0.0066899      Peri.  116.75342     -0.20584809     -0.58215551
 +/-0.0007036      Node   307.77048     +0.02268935     +0.80074742
e   0.9937214      Incl.   84.31919     +0.97832089     -0.14106214
From 33 observations 2020 Apr. 21-June 2, mean residual 0".6.

・ 星図

・ 光度変化

        m1 = 14.0 + 5 logΔ + 10.0 log r

---------------------------------------------------------------------

軌道要素はM.P.E.C. 2020-O07に掲載されたものです。
星図はステラナビゲータ Ver.10 (アストロアーツ) で作成したものです。
光度グラフはComet for Windowsで作成したものです。

---------------------------------------------------------------------

Copyright(C) Seiichi Yoshida (comet@aerith.net). All rights reserved.